| time (UTC) | temp F | wind direction | speed MPH | gust MPH | rain 1hr in | rain 24hr in | rain mn in | humidity % | barometer mb |
| 20260507073017 | 53 | 0.0 | 0.0 | 0.00 | 0.00 | 0.00 | 89 | 1021.1 | |
| 20260507072016 | 53 | 0.0 | 0.0 | 0.00 | 0.00 | 0.00 | 89 | 1021.1 | |
| 20260507071016 | 53 | 0.0 | 0.0 | 0.00 | 0.00 | 0.00 | 88 | 1021.0 | |
| 20260507070016 | 53 | 0.0 | 0.0 | 0.00 | 0.00 | 0.00 | 88 | 1020.9 | |
| 20260507065016 | 53 | 0.0 | 0.0 | 0.00 | 0.00 | 0.00 | 87 | 1020.9 | |
| 20260507064016 | 53 | 0.0 | 0.0 | 0.00 | 0.00 | 0.00 | 87 | 1020.9 | |
| 20260507063017 | 54 | 0.0 | 0.0 | 0.00 | 0.00 | 0.00 | 88 | 1021.0 | |
| 20260507062016 | 54 | 0.0 | 0.0 | 0.00 | 0.00 | 0.00 | 88 | 1021.0 | |
| 20260507061016 | 54 | 0.0 | 1.0 | 0.00 | 0.00 | 0.00 | 88 | 1021.0 | |
| 20260507060016 | 54 | 0.0 | 1.0 | 0.00 | 0.00 | 0.00 | 87 | 1021.0 | |
| 20260507055016 | 54 | 0.0 | 0.0 | 0.00 | 0.00 | 0.00 | 88 | 1021.1 | |
| 20260507054016 | 54 | 0.0 | 0.0 | 0.00 | 0.00 | 0.00 | 88 | 1021.2 | |
| 20260507053016 | 54 | 0.0 | 1.0 | 0.00 | 0.00 | 0.00 | 88 | 1021.1 | |
| 20260507052016 | 54 | 0.0 | 1.0 | 0.00 | 0.00 | 0.00 | 88 | 1021.2 | |
| 20260507051036 | 54 | 0.0 | 0.0 | 0.00 | 0.00 | 0.00 | 88 | 1021.2 | |
| 20260507050017 | 54 | 0.0 | 0.0 | 0.00 | 0.00 | 0.00 | 88 | 1021.3 | |
| 20260507045016 | 54 | 0.0 | 0.0 | 0.00 | 0.00 | 0.00 | 88 | 1021.2 | |
| 20260507044016 | 55 | 0.0 | 0.0 | 0.00 | 0.00 | 0.00 | 87 | 1021.2 | |
| 20260507043016 | 55 | 0.0 | 0.0 | 0.00 | 0.00 | 0.00 | 87 | 1021.2 | |
| 20260507042017 | 55 | 0.0 | 0.0 | 0.00 | 0.00 | 0.00 | 87 | 1021.2 | |
| 20260507041016 | 55 | 0.0 | 0.0 | 0.00 | 0.00 | 0.00 | 87 | 1021.2 | |
| 20260507040016 | 55 | 0.0 | 0.0 | 0.00 | 0.00 | 0.00 | 86 | 1021.1 | |
| 20260507035017 | 55 | 0.0 | 0.0 | 0.00 | 0.00 | 0.00 | 86 | 1021.0 | |
| 20260507034036 | 55 | 0.0 | 0.0 | 0.00 | 0.00 | 0.00 | 86 | 1020.9 | |
| 20260507033016 | 55 | 0.0 | 0.0 | 0.00 | 0.00 | 0.00 | 86 | 1020.8 | |
| 20260507032016 | 55 | 0.0 | 0.0 | 0.00 | 0.00 | 0.00 | 85 | 1020.7 | |
| 20260507031016 | 55 | 0.0 | 0.0 | 0.00 | 0.00 | 0.00 | 84 | 1020.6 | |
| 20260507030037 | 56 | 0.0 | 0.0 | 0.00 | 0.00 | 0.00 | 84 | 1020.5 | |
| 20260507025016 | 56 | 0.0 | 0.0 | 0.00 | 0.00 | 0.00 | 84 | 1020.6 | |
| 20260507024016 | 56 | 0.0 | 0.0 | 0.00 | 0.00 | 0.00 | 82 | 1020.6 | |
| 20260507023016 | 56 | 0.0 | 0.0 | 0.00 | 0.00 | 0.00 | 82 | 1020.6 | |
| 20260507022016 | 56 | 0.0 | 0.0 | 0.00 | 0.00 | 0.00 | 82 | 1020.5 | |
| 20260507021015 | 56 | 0.0 | 0.0 | 0.00 | 0.00 | 0.00 | 82 | 1020.5 | |
| 20260507020036 | 56 | 0.0 | 0.0 | 0.00 | 0.00 | 0.00 | 82 | 1020.6 | |
| 20260507015016 | 56 | 0.0 | 0.0 | 0.00 | 0.00 | 0.00 | 81 | 1020.5 | |
| 20260507014036 | 57 | 0.0 | 0.0 | 0.00 | 0.00 | 0.00 | 80 | 1020.5 | |
| 20260507013056 | 57 | 0.0 | 0.0 | 0.00 | 0.00 | 0.00 | 80 | 1020.5 | |
| 20260507012016 | 57 | 0.0 | 0.0 | 0.00 | 0.00 | 0.00 | 79 | 1020.5 | |
| 20260507010036 | 57 | 0.0 | 0.0 | 0.00 | 0.00 | 0.00 | 80 | 1020.6 | |
| 20260507005016 | 57 | 0.0 | 0.0 | 0.00 | 0.00 | 0.00 | 79 | 1020.6 | |
| 20260507004016 | 57 | 0.0 | 1.0 | 0.00 | 0.00 | 0.00 | 79 | 1020.7 | |
| 20260507003015 | 57 | 0.0 | 0.0 | 0.00 | 0.00 | 0.00 | 78 | 1020.6 | |
| 20260507002016 | 57 | 0.0 | 1.0 | 0.00 | 0.00 | 0.00 | 78 | 1020.7 | |
| 20260507001036 | 57 | 0.0 | 2.0 | 0.00 | 0.00 | 0.00 | 79 | 1020.6 | |
| 20260507000015 | 57 | 0.0 | 1.0 | 0.00 | 0.00 | 0.00 | 80 | 1020.7 | |
| 20260506235035 | 57 | 0.0 | 1.0 | 0.00 | 0.00 | 0.00 | 80 | 1020.7 | |
| 20260506234015 | 56 | 0.0 | 0.0 | 0.00 | 0.00 | 0.00 | 80 | 1020.7 | |
| 20260506233016 | 56 | 0.0 | 2.0 | 0.00 | 0.00 | 0.00 | 79 | 1020.7 | |
| 20260506232016 | 56 | 0.0 | 2.0 | 0.00 | 0.00 | 0.00 | 80 | 1020.8 | |
| 20260506231015 | 56 | 0.0 | 2.0 | 0.00 | 0.00 | 0.00 | 81 | 1020.7 | |
| 20260506230035 | 56 | 0.0 | 3.0 | 0.00 | 0.00 | 0.00 | 81 | 1020.8 | |
| 20260506225016 | 56 | 0.0 | 1.0 | 0.00 | 0.00 | 0.00 | 82 | 1020.8 | |
| 20260506224015 | 56 | 0.0 | 1.0 | 0.00 | 0.00 | 0.00 | 84 | 1020.8 | |
| 20260506223036 | 55 | 0.0 | 1.0 | 0.00 | 0.00 | 0.00 | 84 | 1020.9 | |
| 20260506222015 | 55 | 0.0 | 1.0 | 0.00 | 0.00 | 0.00 | 85 | 1021.0 | |
| 20260506221016 | 55 | 0.0 | 1.0 | 0.00 | 0.00 | 0.00 | 86 | 1021.0 | |
| 20260506220015 | 55 | 0.0 | 1.0 | 0.00 | 0.00 | 0.00 | 87 | 1020.9 | |
| 20260506215038 | 55 | 0.0 | 1.0 | 0.00 | 0.00 | 0.00 | 88 | 1021.0 | |
| 20260506214017 | 55 | 0.0 | 1.0 | 0.00 | 0.00 | 0.00 | 88 | 1021.0 | |
| 20260506213038 | 55 | 0.0 | 1.0 | 0.00 | 0.00 | 0.00 | 88 | 1021.0 | |
| 20260506212018 | 55 | 0.0 | 4.0 | 0.00 | 0.00 | 0.00 | 86 | 1021.0 | |
| 20260506211017 | 55 | 0.0 | 2.0 | 0.00 | 0.00 | 0.00 | 86 | 1020.9 | |
| 20260506210017 | 55 | 0.0 | 2.0 | 0.00 | 0.00 | 0.00 | 86 | 1020.9 | |
| 20260506205017 | 56 | 0.0 | 0.0 | 0.00 | 0.00 | 0.00 | 86 | 1020.9 | |
| 20260506204018 | 56 | 0.0 | 0.0 | 0.00 | 0.00 | 0.00 | 86 | 1020.8 | |
| 20260506203017 | 56 | 0.0 | 2.0 | 0.00 | 0.00 | 0.00 | 87 | 1020.8 | |
| 20260506202017 | 56 | 0.0 | 2.0 | 0.00 | 0.00 | 0.00 | 85 | 1020.7 | |
| 20260506201018 | 56 | 0.0 | 4.0 | 0.00 | 0.00 | 0.00 | 86 | 1020.7 | |
| 20260506200037 | 57 | 0.0 | 3.0 | 0.00 | 0.00 | 0.00 | 85 | 1020.6 | |
| 20260506195017 | 57 | 0.0 | 1.0 | 0.00 | 0.00 | 0.00 | 85 | 1020.5 | |
| 20260506194017 | 57 | 0.0 | 3.0 | 0.00 | 0.00 | 0.00 | 84 | 1020.5 | |
| 20260506193017 | 56 | 0.0 | 1.0 | 0.00 | 0.00 | 0.00 | 86 | 1020.4 | |
| 20260506192017 | 56 | 0.0 | 3.0 | 0.00 | 0.00 | 0.00 | 87 | 1020.3 | |
| 20260506191017 | 55 | 0.0 | 1.0 | 0.00 | 0.00 | 0.00 | 88 | 1020.5 | |
| 20260506190018 | 55 | 0.0 | 3.0 | 0.00 | 0.00 | 0.00 | 87 | 1020.6 | |
| 20260506185017 | 56 | 0.0 | 1.0 | 0.00 | 0.00 | 0.00 | 88 | 1020.6 | |
| 20260506184018 | 56 | 0.0 | 4.0 | 0.00 | 0.00 | 0.00 | 87 | 1020.5 | |
| 20260506183017 | 56 | 0.0 | 3.0 | 0.00 | 0.00 | 0.00 | 88 | 1020.5 | |
| 20260506182017 | 55 | 0.0 | 3.0 | 0.00 | 0.00 | 0.00 | 88 | 1020.3 | |
| 20260506181017 | 55 | 113 | 1.0 | 4.0 | 0.00 | 0.00 | 0.00 | 88 | 1020.2 |
| 20260506180038 | 56 | 0.0 | 2.0 | 0.00 | 0.00 | 0.00 | 87 | 1020.2 | |
| 20260506175017 | 56 | 0.0 | 2.0 | 0.00 | 0.00 | 0.00 | 87 | 1020.1 | |
| 20260506174018 | 56 | 23 | 1.0 | 4.0 | 0.00 | 0.00 | 0.00 | 87 | 1020.3 |
| 20260506173017 | 56 | 0.0 | 3.0 | 0.00 | 0.00 | 0.00 | 86 | 1020.3 | |
| 20260506172017 | 56 | 0.0 | 3.0 | 0.00 | 0.00 | 0.00 | 86 | 1020.3 | |
| 20260506171038 | 56 | 0.0 | 3.0 | 0.00 | 0.00 | 0.00 | 87 | 1020.3 | |
| 20260506170017 | 56 | 0.0 | 2.0 | 0.00 | 0.00 | 0.00 | 86 | 1020.1 | |
| 20260506165017 | 56 | 0.0 | 2.0 | 0.00 | 0.00 | 0.00 | 87 | 1020.0 | |
| 20260506164017 | 56 | 0.0 | 1.0 | 0.00 | 0.00 | 0.00 | 87 | 1019.9 | |
| 20260506163017 | 56 | 0.0 | 3.0 | 0.00 | 0.00 | 0.00 | 88 | 1019.7 | |
| 20260506162017 | 56 | 0.0 | 1.0 | 0.00 | 0.00 | 0.00 | 88 | 1019.6 | |
| 20260506161037 | 55 | 0.0 | 1.0 | 0.00 | 0.00 | 0.00 | 88 | 1019.7 | |
| 20260506160017 | 55 | 0.0 | 1.0 | 0.00 | 0.00 | 0.00 | 88 | 1019.7 | |
| 20260506155017 | 55 | 0.0 | 2.0 | 0.00 | 0.00 | 0.00 | 89 | 1019.8 | |
| 20260506154017 | 55 | 0.0 | 2.0 | 0.00 | 0.00 | 0.00 | 90 | 1019.9 | |
| 20260506153037 | 55 | 0.0 | 0.0 | 0.00 | 0.00 | 0.00 | 90 | 1019.8 | |
| 20260506152017 | 55 | 0.0 | 0.0 | 0.00 | 0.00 | 0.00 | 91 | 1019.8 | |
| 20260506151057 | 55 | 0.0 | 0.0 | 0.00 | 0.00 | 0.00 | 91 | 1019.6 | |
| 20260506150017 | 55 | 0.0 | 1.0 | 0.00 | 0.00 | 0.00 | 91 | 1019.7 | |
| 20260506145017 | 54 | 0.0 | 2.0 | 0.00 | 0.00 | 0.00 | 91 | 1019.7 | |
| 20260506144017 | 54 | 0.0 | 2.0 | 0.00 | 0.00 | 0.00 | 91 | 1019.6 | |
| 20260506143017 | 54 | 0.0 | 0.0 | 0.00 | 0.00 | 0.00 | 91 | 1019.6 | |
| 20260506142017 | 54 | 0.0 | 0.0 | 0.00 | 0.00 | 0.00 | 91 | 1019.6 | |
| 20260506141016 | 54 | 0.0 | 0.0 | 0.00 | 0.00 | 0.00 | 91 | 1019.5 | |
| 20260506140017 | 54 | 0.0 | 0.0 | 0.00 | 0.00 | 0.00 | 91 | 1019.7 | |
| 20260506135016 | 54 | 0.0 | 1.0 | 0.00 | 0.00 | 0.00 | 92 | 1019.5 | |
| 20260506134017 | 54 | 0.0 | 0.0 | 0.00 | 0.00 | 0.00 | 92 | 1019.4 | |
| 20260506133017 | 54 | 0.0 | 1.0 | 0.00 | 0.00 | 0.00 | 92 | 1019.4 | |
| 20260506132037 | 54 | 0.0 | 1.0 | 0.00 | 0.00 | 0.00 | 92 | 1019.2 | |
| 20260506131016 | 54 | 0.0 | 0.0 | 0.00 | 0.00 | 0.00 | 92 | 1018.9 | |
| 20260506130016 | 54 | 0.0 | 0.0 | 0.00 | 0.00 | 0.00 | 93 | 1019.2 | |
| 20260506125017 | 53 | 0.0 | 0.0 | 0.00 | 0.00 | 0.00 | 94 | 1019.0 | |
| 20260506124016 | 53 | 0.0 | 0.0 | 0.00 | 0.00 | 0.00 | 94 | 1018.8 | |
| 20260506123017 | 53 | 0.0 | 0.0 | 0.00 | 0.00 | 0.00 | 94 | 1018.8 | |
| 20260506122037 | 53 | 0.0 | 0.0 | 0.00 | 0.00 | 0.00 | 94 | 1018.7 | |
| 20260506121016 | 53 | 0.0 | 0.0 | 0.00 | 0.00 | 0.00 | 95 | 1018.8 | |
| 20260506120017 | 53 | 0.0 | 0.0 | 0.00 | 0.00 | 0.00 | 95 | 1018.7 | |
| 20260506115016 | 53 | 0.0 | 0.0 | 0.00 | 0.00 | 0.00 | 95 | 1018.6 | |
| 20260506114016 | 53 | 0.0 | 0.0 | 0.00 | 0.00 | 0.00 | 95 | 1018.5 | |
| 20260506113016 | 53 | 0.0 | 0.0 | 0.00 | 0.00 | 0.00 | 95 | 1018.5 | |
| 20260506112016 | 53 | 0.0 | 0.0 | 0.00 | 0.00 | 0.00 | 95 | 1018.5 | |
| 20260506111037 | 53 | 0.0 | 0.0 | 0.00 | 0.00 | 0.00 | 96 | 1018.4 | |
| 20260506110016 | 53 | 0.0 | 0.0 | 0.00 | 0.00 | 0.00 | 96 | 1018.4 | |
| 20260506105036 | 53 | 0.0 | 0.0 | 0.00 | 0.00 | 0.00 | 96 | 1018.2 | |
| 20260506104017 | 52 | 0.0 | 0.0 | 0.00 | 0.00 | 0.00 | 96 | 1018.1 | |
| 20260506103037 | 52 | 0.0 | 0.0 | 0.00 | 0.00 | 0.00 | 96 | 1018.0 | |
| 20260506102016 | 52 | 0.0 | 0.0 | 0.00 | 0.00 | 0.00 | 95 | 1018.0 | |
| 20260506101016 | 52 | 0.0 | 0.0 | 0.00 | 0.00 | 0.00 | 95 | 1017.9 | |
| 20260506100016 | 52 | 0.0 | 0.0 | 0.00 | 0.00 | 0.00 | 95 | 1017.8 | |
| 20260506095016 | 52 | 0.0 | 0.0 | 0.00 | 0.00 | 0.00 | 95 | 1017.7 | |
| 20260506094016 | 52 | 0.0 | 0.0 | 0.00 | 0.00 | 0.00 | 95 | 1017.6 | |
| 20260506093016 | 51 | 0.0 | 0.0 | 0.00 | 0.00 | 0.00 | 95 | 1017.5 | |
| 20260506092056 | 51 | 0.0 | 0.0 | 0.00 | 0.00 | 0.00 | 95 | 1017.5 | |
| 20260506091017 | 51 | 0.0 | 0.0 | 0.00 | 0.00 | 0.00 | 95 | 1017.4 | |
| 20260506090016 | 51 | 0.0 | 0.0 | 0.00 | 0.00 | 0.00 | 95 | 1017.3 | |
| 20260506085037 | 51 | 0.0 | 0.0 | 0.00 | 0.00 | 0.00 | 95 | 1017.2 | |
| 20260506084016 | 51 | 0.0 | 0.0 | 0.00 | 0.00 | 0.00 | 95 | 1017.1 | |
| 20260506083016 | 52 | 0.0 | 0.0 | 0.00 | 0.00 | 0.00 | 94 | 1017.1 | |
| 20260506082016 | 52 | 0.0 | 0.0 | 0.00 | 0.00 | 0.00 | 94 | 1017.1 | |
| 20260506081016 | 52 | 0.0 | 0.0 | 0.00 | 0.00 | 0.00 | 94 | 1017.1 |